OpenBCM V1.07b12 (Linux)

Packet Radio Mailbox

DB0FHN

[JN59NK Nuernberg]

 Login: GUEST





  
F1EBE  > KEPS     19.04.03 13:52l 104 Lines 5480 Bytes #999 (0) @ EU
BID : 28751_F8KGK
Read: DB0FHN GUEST
Subj: 2Line Orbital elements 03108.AMSAT
Path: DB0FHN<DB0RGB<OK0PPL<RZ6HXA<SP7MGD<ON0BEL<TU5EX<F3KT<F6HBB<F5KCK<
      F8KAE<F5GVH<F8KGK
Sent: 030419/0631Z @:F8KGK.FNOR.FRA.EU #:28751 [Rouen]xFBB7.04 $:28751_F8KGK
From: F1EBE@F8KGK.FNOR.FRA.EU
To  : KEPS@EU


AO-7                    
1 07530U 74089B   03107.71104858 -.00000029  00000-0  10000-3 0  1828
2 07530 101.7502 154.9262 0012236 326.7190  33.3112 12.53565183300470
AO-10                   
1 14129U 83058B   03107.20770856 -.00000144  00000-0  10000-3 0  9272
2 14129  26.0769 154.8618 6004664 344.5802   3.2724  2.05869259121259
UO-11                   
1 14781U 84021B   03107.96514773  .00000812  00000-0  11947-3 0  1380
2 14781  98.1272  82.3801 0010198  29.4376 330.7406 14.78173342 24867
UO-14                   
1 20437U 90005B   03108.15273119  .00000082  00000-0  46562-4 0  2115
2 20437  98.2619 148.9381 0011634  31.4767 328.7108 14.31258193690876
AO-16                   
1 20439U 90005D   03107.73856497  .00000095  00000-0  51156-4 0  8829
2 20439  98.3059 160.5624 0011579  40.2105 319.9928 14.31495799690854
DO-17                   
1 20440U 90005E   03107.71612864  .00000106  00000-0  55307-4 0  7494
2 20440  98.3263 164.5700 0012020  37.0932 323.1080 14.31776268690923
WO-18                   
1 20441U 90005F   03107.92572342  .00000108  00000-0  56202-4 0   618
2 20441  98.3208 163.9427 0012508  39.0612 321.1473 14.31577287690935
LO-19                   
1 20442U 90005G   03107.68781566  .00000091  00000-0  49779-4 0   153
2 20442  98.3375 166.8451 0012862  37.6677 322.5400 14.31741028690951
FO-20                   
1 20480U 90013C   03107.93698497 -.00000045  00000-0 -23161-4 0  4985
2 20480  99.0547  59.7403 0539572 231.6127 123.5334 12.83331321618004
RS-12/13                
1 21089U 91007A   03107.63488099  .00000059  00000-0  45941-4 0  5149
2 21089  82.9213 138.3069 0030551 122.4922 237.9192 13.74410423611766
UO-22                   
1 21575U 91050B   03107.97804319  .00000219  00000-0  83892-4 0  7878
2 21575  98.1472  97.1872 0007056 326.1462  33.9272 14.39198446616681
KO-23                   
1 22077U 92052B   03107.95304308 -.00000037  00000-0  10000-3 0  1929
2 22077  66.0845   3.4622 0015592 261.4361  98.4890 12.86410577501815
AO-27                   
1 22825U 93061C   03107.94047660  .00000098  00000-0  54954-4 0  5360
2 22825  98.2706 134.6501 0009626  86.1267 274.1015 14.28964524498215
IO-26                   
1 22826U 93061D   03107.82159304  .00000114  00000-0  60928-4 0  3373
2 22826  98.2699 135.6757 0009985  84.8395 275.3924 14.29189510498246
KO-25                   
1 22828U 93061F   03107.64807516  .00000087  00000-0  49967-4 0  4741
2 22828  98.2624 135.7745 0010975  66.8751 293.3587 14.29528075466424
POSAT                   
1 22829U 93061G   03108.55622325  .00000150  00000-0  74100-4 0  5015
2 22829  98.2651 137.2731 0010840  64.8525 295.3780 14.29799485498488
RS-15                   
1 23439U 94085A   03107.91903984 -.00000010  00000-0  92230-3 0  7079
2 23439  64.8153 307.1300 0146420 103.6961 258.0310 11.27548901342171
FO-29                   
1 24278U 96046B   03107.89404468  .00000037  00000-0  71044-4 0  5932
2 24278  98.5456 251.2174 0351494  65.3327 298.3986 13.52879254329191
TO-31                   
1 25396U 98043C   03107.94523075 -.00000043  00000-0  00000-0 0  8767
2 25396  98.6165 183.8751 0001952 347.9548  12.1585 14.23529890247831
GO-32                   
1 25397U 98043D   03107.91952191  .00000018  00000-0  27374-4 0  1895
2 25397  98.6138 182.6575 0001371  22.2364 337.8868 14.22973408247790
SO-33                   
1 25509U 98061B   03108.39826697  .00000311  00000-0  51849-4 0  8262
2 25509  31.4275 180.9276 0357168  96.5786 267.5574 14.27484752233726
PO-34                   
1 25520U 98064B   03108.48932447  .00001762  00000-0  83831-4 0  6613
2 25520  28.4625 191.3151 0006052 273.0315  86.9559 15.14187753246521
ISS         
1 25544U 98067A   03108.43044407 -.00017198  00000-0 -21673-3 0  9044
2 25544  51.6334 320.4096 0006677  32.4708  42.1851 15.58234717251684
UO-36                   
1 25693U 99021A   03108.47947686  .00000182  00000-0  45930-4 0  8860
2 25693  64.5621 190.4674 0025616 312.5094  47.3845 14.76452888214951
OO-38                   
1 26063U 00004C   03107.75519767  .00000077  00000-0  46743-4 0  7674
2 26063 100.2018 172.8564 0037321 122.4932 237.9863 14.35507241168749
SO-41                   
1 26545U 00057A   03107.82923069  .00000794  00000-0  12430-3 0  4408
2 26545  64.5588 212.8378 0047638 229.5061 130.1922 14.79134799137849
MO-46                   
1 26548U 00057D   03107.62581832  .00001019  00000-0  14650-3 0  4437
2 26548  64.5581 205.7006 0040839 230.0354 129.7157 14.81468642137970
SO-42                   
1 26549U 00057E   03107.77200223  .00000695  00000-0  11358-3 0  7418
2 26549  64.5525 217.4277 0052211 228.9889 130.6689 14.78064992137747
AO-40                   
1 26609U 00072B   03101.06918723 -.00000337  00000-0  10000-3 0  3243
2 26609   8.4684  54.7135 7954739 162.8251 262.9704  1.25597299 11235
NO-44                   
1 26931U 01043C   03107.96131039  .00000101  00000-0  72351-4 0  4902
2 26931  67.0469 105.2845 0005868 273.1026  86.9402 14.29148053 80697
NO-45                   
1 26932U 01043D   03107.93226472  .00000043  00000-0  49277-4 0  4508
2 26932  67.0537 105.0507 0003987 263.9927  96.0720 14.29317604 80712
AO-49                   
1 27605U 02058A   03107.82624696  .00000309  00000-0  70808-4 0  1103
2 27605  64.5516  20.3229 0034891  86.4887 274.0196 14.71462555 17381
SO-50                   
1 27607U 02058C   03107.87810287  .00000539  00000-0  11068-3 0  1065
2 27607  64.5520  21.0151 0036240  83.2421 277.2801 14.70035562 17379


Read previous mail | Read next mail


 17.09.2025 23:45:41lGo back Go up